Content
SEND FEEDBACK

Daily
Averages
Monthly
Summary
Iran

BOJNURD, IRAN


Home > Middle East > Iran
Elevation: 3694 feet     Latitude: 37 28N     Longitude: 057 20E

WEATHER
 
SELECT A DAY
Number of Records: 35,118;   Date Range: 5/9/03 - 10/30/14
 
SHARE

PRINT THIS DATA

[ ← Previous Day ]
WEATHER ALMANAC - OCTOBER 12, 2013
[ Next Day → ]
[ °C ]   °F
Weather ElementAverageHighLow
Temperature53.8 °F66.2 °F (2:30 pm)35.6 °F (6:30 am)
Dewpoint33 °F39.2 °F (11:30 pm)26.6 °F (5:30 am)
Humidity45.1 %70 % (6:30 am)21 % (3:30 pm)
Barometer30.19 in30.27 in (1:30 am)30.09 in (3:30 pm)
Wind Speed3.8 mph13.8 mph (4:30 pm)
Weather ElementAverage
Visibility5.7 mi
Wind DirectionESE (112.6 °)

Weather ElementTotal
Precipitation---
Heating Degree Days14.1 (Base 65)
Growing Degree Days0.9 (Base 50)
Averaged from 25 records on October 12, 2013
WEATHER CONDITIONS BREAKOUT
WIND DIRECTION BREAKOUT
WEATHER BY HOUR - OCTOBER 12, 2013
[ °C ]   °F
Local TimeTemperatureDewpointHumidityBarometerVisibilityWind DirectionWind SpeedGust SpeedPrecipitationEventsConditions
1:30 AM46.4 °F30.2 °F53 %30.27 inCalmClear
3:30 AM44.0 °F29.0 °F43 %30.22 in6.0 miCalm
4:30 AM41.0 °F28.4 °F61 %30.27 inCalmClear
5:30 AM39.2 °F26.6 °F61 %30.24 in4.3 miCalmClear
6:30 AM35.6 °F26.6 °F70 %30.27 inCalmClear
7:30 AM41.0 °F28.4 °F61 %30.27 inCalmClear
8:30 AM48.2 °F32.0 °F54 %30.27 inCalmClear
9:30 AM54.0 °F31.0 °F29 %30.23 in6.0 miCalm
9:30 AM53.6 °F30.2 °F41 %30.27 inCalmClear
10:30 AM57.2 °F33.8 °F41 %30.21 inCalmClear
11:30 AM60.8 °F33.8 °F36 %30.18 inCalmClear
12:30 PM62.6 °F33.8 °F34 %30.18 inCalmClear
1:30 PM64.4 °F32.0 °F30 %30.15 inCalmClear
2:30 PM66.2 °F30.2 °F26 %30.12 inWest (270°)6.9 mphClear
3:30 PM64.0 °F34.0 °F21 %30.09 in6.0 miWest (260°)11.2 mph
3:30 PM64.4 °F33.8 °F32 %30.12 inWest (260°)11.5 mphClear
4:30 PM62.6 °F35.6 °F37 %30.15 inWest (270°)13.8 mphClear
5:30 PM60.8 °F33.8 °F36 %30.15 inWest (260°)9.2 mphClear
6:30 PM57.2 °F35.6 °F44 %30.15 inCalmClear
7:30 PM55.4 °F37.4 °F51 %30.15 inWest (280°)11.5 mphClear
8:30 PM55.4 °F37.4 °F51 %30.15 inWNW (290°)9.2 mphClear
9:30 PM54.0 °F37.0 °F42 %30.11 in6.0 miWNW (300°)8.9 mph
9:30 PM53.6 °F37.4 °F54 %30.15 inWNW (300°)9.2 mphClear
10:30 PM53.6 °F37.4 °F54 %30.15 inCalmClear
11:30 PM50.0 °F39.2 °F66 %30.15 inEast (100°)4.6 mphClear
Hourly data recorded from 40723, located miles away from Bojnurd, Iran







STORIES FROM OUR PARTNERS